Weather History for El Dorado, AR

Change the Weather History Date:

Thursday, August 28, 2014

  Actual Average Record
Temperature  
Mean Temperature 81 °F 80 °F  
Max Temperature 93 °F 92 °F 105 °F (2000)
Min Temperature 68 °F 69 °F 50 °F (1906)
Degree Days  
Heating Degree Days 0 0  
Month to date heating degree days 0 0  
Since 1 June heating degree days 0 0  
Since 1 July heating degree days 0 0  
Cooling Degree Days 16 15  
Month to date cooling degree days 345 461  
Year to date cooling degree days 1405 1684  
Since 1 June cooling degree days 1153 1373  
Growing Degree Days 30 (Base 50)    
Moisture  
Dew Point 69 °F    
Average Humidity 71    
Maximum Humidity 97    
Minimum Humidity 44    
Precipitation  
Precipitation T in 0.09 in 1.46 in (1982)
Month to date precipitation 2.06 2.82  
Year to date precipitation 29.82 34.26  
Snow  
Snow 0.00 in - - ()
Month to date snowfall 0.0  
Since 1 June snowfall 0.0  
Since 1 July snowfall 0.0  
Snow Depth 0.00 in    
Sea Level Pressure  
Sea Level Pressure 29.96 in    
Wind  
Wind Speed 3 mph (SE)    
Max Wind Speed 13 mph    
Max Gust Speed 18 mph    
Visibility 10 miles    
Events      
T = Trace of Precipitation, MM = Missing Value Source: NWS Daily Summary

Daily Weather History Graph

Daily Weather History Graph

Search for Another Location

Airport:

Trip Planner

Search our weather history database for the weather conditions in past years. The results will help you decide how hot, cold, wet, or windy it might be!

Date:

Astronomy

Aug. 28, 2014 Rise Set
Actual Time 6:42 AM CDT 7:41 PM CDT
Civil Twilight 6:17 AM CDT 8:06 PM CDT
Nautical Twilight 5:47 AM CDT 8:36 PM CDT
Astronomical Twilight 5:16 AM CDT 9:07 PM CDT
Moon 9:24 AM CDT (8/28) 9:17 PM CDT (8/28)
Length of Visible Light 13h 49m
Length of Day
12h 58m
Waxing Crescent, 9% of the Moon is Illuminated
Aug 28
Waxing Crescent
Sep 2
First Quarter
Sep 8
Full
Sep 15
Last Quarter
Sep 24
New

Hourly Weather History & Observations

Time (CDT) Temp. Heat Index Dew Point Humidity Pressure Visibility Wind Dir Wind Speed Gust Speed Precip Events Conditions
12:53 AM 71.1 °F - 69.1 °F 93% 30.01 in 10.0 mi Calm Calm - N/A   Clear
1:53 AM 71.1 °F - 69.1 °F 93% 30.00 in 10.0 mi Calm Calm - N/A   Mostly Cloudy
2:53 AM 70.0 °F - 68.0 °F 93% 29.99 in 10.0 mi Calm Calm - N/A   Partly Cloudy
3:53 AM 70.0 °F - 68.0 °F 93% 29.98 in 10.0 mi Calm Calm - N/A   Clear
4:53 AM 69.1 °F - 68.0 °F 96% 29.98 in 10.0 mi Calm Calm - N/A   Clear
5:53 AM 68.0 °F - 66.9 °F 96% 29.99 in 9.0 mi Calm Calm - N/A   Clear
6:53 AM 69.1 °F - 66.9 °F 93% 29.99 in 7.0 mi Calm Calm - N/A   Clear
7:53 AM 72.0 °F - 69.1 °F 91% 30.00 in 9.0 mi Calm Calm - N/A   Clear
8:53 AM 79.0 °F - 69.1 °F 72% 30.00 in 10.0 mi Calm Calm - N/A   Clear
9:53 AM 82.4 °F 85.4 °F 68.0 °F 62% 30.01 in 10.0 mi East 4.6 mph - N/A   Clear
10:53 AM 87.1 °F 90.6 °F 68.0 °F 53% 30.01 in 10.0 mi East 6.9 mph - N/A   Partly Cloudy
11:53 AM 90.0 °F 92.8 °F 66.9 °F 46% 30.00 in 10.0 mi Variable 4.6 mph - N/A   Scattered Clouds
12:53 PM 91.0 °F 94.3 °F 66.9 °F 45% 29.99 in 10.0 mi Variable 4.6 mph - N/A   Partly Cloudy
1:53 PM 91.9 °F 95.9 °F 68.0 °F 45% 29.96 in 10.0 mi Variable 4.6 mph - N/A   Mostly Cloudy
2:53 PM 91.9 °F 95.4 °F 66.9 °F 44% 29.94 in 10.0 mi Variable 3.5 mph - N/A   Clear
3:53 PM 91.9 °F 95.9 °F 68.0 °F 45% 29.92 in 10.0 mi East 6.9 mph - N/A   Scattered Clouds
4:53 PM 91.0 °F 97.6 °F 71.1 °F 52% 29.91 in 10.0 mi South 9.2 mph - N/A   Mostly Cloudy
5:53 PM 88.0 °F 93.8 °F 71.1 °F 57% 29.90 in 10.0 mi SE 6.9 mph - N/A   Clear
6:53 PM 84.9 °F 90.7 °F 72.0 °F 65% 29.89 in 10.0 mi SSE 5.8 mph - N/A   Clear
7:53 PM 82.0 °F 86.3 °F 71.1 °F 69% 29.90 in 10.0 mi SE 8.1 mph - N/A   Clear
8:53 PM 77.0 °F - 73.0 °F 88% 29.91 in 10.0 mi Calm Calm - N/A   Clear
9:53 PM 75.9 °F - 72.0 °F 87% 29.93 in 10.0 mi Calm Calm - N/A   Clear
10:53 PM 77.0 °F - 72.0 °F 84% 29.94 in 10.0 mi Calm Calm - N/A   Overcast
11:53 PM 75.9 °F - 72.0 °F 87% 29.95 in 10.0 mi South 5.8 mph - N/A   Partly Cloudy